Regional Weather Roundup
Issued by NWS State College, PA

Home | Current Version | Previous Version | Graphics & Text | Print | Product List | Glossary On
Versions: 1 2 3 4 5 6 7 8 9 10 11 12 13 14 15 16 17 18 19 20 21 22 23 24 25 26 27 28 29 30 31 32 33 34 35 36 37 38 39 40 41 42 43 44 45 46 47 48 49 50
000
ASUS41 KCTP 101610
RWRCTP

REGIONAL WEATHER ROUNDUP
NATIONAL WEATHER SERVICE STATE COLLEGE PA
1100 AM EST SAT DEC 10 2016

Note: "fair" indicates few or no clouds below 12,000 feet with no
significant weather and/or obstructions to visibility.

* = STATION THAT DOES NOT REPORT PRECIPITATION /E.G. RAIN...SNOW...ETC/
    THUNDER OR FOG.

PAZ002>004-007>009-013>016-020>023-029>032-101700-
WESTERN PENNSYLVANIA

CITY           SKY/WX    TMP DP  RH WIND       PRES   REMARKS
ERIE           CLOUDY    29  17  61 W15G24    30.40S
MEADVILLE      LGT SNOW  21  17  84 SW16      30.39S FOG     WCI   7
FRANKLIN*        N/A     21  14  73 W12G18    30.40S WCI   9
NEW CASTLE     CLOUDY    26  16  65 W10       30.46R
BEAVER COUNTY  SUNNY     27  14  59 W10G21    30.45R
BUTLER*        CLOUDY    25  12  58 W15       30.47S WCI  12
PITTSBURGH INT FLURRIES  26  16  65 W14G20    30.45S WCI  14
PITTSBURGH     CLOUDY    25  14  63 W14       30.45S WCI  13
INDIANA*       CLOUDY    25  16  68 W14G24    30.44S WCI  13
LATROBE        PTSUNNY   25  16  68 W18       30.47S WCI  11
WASHINGTON CO* CLOUDY    25  14  63 SW9G17    30.48S
$$

PAZ004>006-010>012-017>019-024>028-033>037-041-042-045-046-049>053-101700-
CENTRAL PENNSYLVANIA

CITY           SKY/WX    TMP DP  RH WIND       PRES   REMARKS
BRADFORD       LGT SNOW  21  16  81 W10G21    30.29S WCI  10
DUBOIS         LGT SNOW  22  15  75 W17G23    30.35S WCI   8
CLEARFIELD     LGT SNOW  25  18  74 SW9       30.37S
JOHNSTOWN      LGT SNOW  20  14  77 W12G21    30.34S WCI   8
ALTOONA        CLOUDY    26  18  71 W13       30.40F WCI  15
STATE COLLEGE  PTSUNNY   27  14  59 W17G24    30.38F WCI  14
WILLIAMSPORT   PTSUNNY   32  18  56 W17G25    30.38F
SELINSGROVE    MOSUNNY   32  16  51 W14G22    30.41F
FT INDIANTOWN  SUNNY     33  13  44 NW12      30.41F
CAPITAL CITY   MOSUNNY   33  15  47 W14       30.44F
HARRISBURG     PTSUNNY   34  18  52 W10G22    30.43F
YORK           SUNNY     33  15  47 W16G22    30.44F
$$

PAZ038>040-043-044-047-048-054-055-060>062-067>071-101700-
EASTERN PENNSYLVANIA

CITY           SKY/WX    TMP DP  RH WIND       PRES   REMARKS
SCRANTON       CLOUDY    29  19  66 W10       30.33F
MOUNT POCONO   CLOUDY    23  15  71 W12G21    30.27F WCI  12
ALLENTOWN      PTSUNNY   34  17  50 W10G21    30.40F
QUAKERTOWN*    SUNNY     32  16  51 W12G18    30.41S
READING        PTSUNNY   33  16  49 W12       30.42F
LANCASTER      SUNNY     34  18  52 W14       30.43F
COATESVILLE    SUNNY     32  18  55 NW16      30.42F
POTTSTOWN      PTSUNNY   31  16  54 W14G21    30.44F
BLUE BELL      SUNNY     32  19  59 W8G16     30.41F
DOYLESTOWN     MOSUNNY   35  19  52 W12G18    30.40F
WILLOW GROVE   NOT AVBL
NORTH PHILA    SUNNY     36  19  50 W12       30.44F
PHILADELPHIA   MOSUNNY   35  16  45 NW15      30.44F
$$




USA.gov is the U.S. government's official web portal to all federal, state and local government web resources and services.